OpenBCM V1.13 (Linux)

Packet Radio Mailbox

DB0FHN

[JN59NK Nuernberg]

 Login: GUEST





  
LU9DCE > KEP      13.08.19 20:34l 247 Lines 12263 Bytes #-2452 (0) @ WW
BID : 29924_LU9DCE
Read: DF7EAV DJ6UX GUEST
Subj: TLE 13 08
Path: DB0FHN<DB0BLO<DB0ERF<IZ3LSV<I3XTY<I0OJJ<LU9DCE
Sent: 190813/1801Z 29924@LU9DCE.TOR.BA.ARG.SOAM LinBPQ6.0.18

>From lu9dce%lu9dce.tor.ba.arg.soam@i0ojj.ampr.org Tue Aug 13 20:04:07 2019
Received: from i0ojj.ampr.org by i0ojj.ampr.org (JNOS2.0k.3b) with SMTP
	id AA24844 ; Tue, 13 Aug 2019 20:04:07 +0200
Message-Id: <29924_lu9dce@lu9dce.bbs>
>From: lu9dce@lu9dce.tor.ba.arg.soam
X-JNOS-User-Port: Circuit  (X-YORK:VE3CGR-8 LU9DCE)  -> Sending message

            __    _  _  ___  ____   ___  ____    ____  ____  ____
           (  )  / )( \/ _ \(    \ / __)(  __)  (  _ \(  _ \/ ___)
           / (_/\) \/ (\__  )) D (( (__  ) _)    ) _ ( ) _ (\___ \
           \____/\____/(___/(____/ \___)(____)  (____/(____/(____/
               ESTACION DE PACKET RADIO - BUENOS AIRES (GF05OM)
                   BOLETINES INFORMATIVOS PROGRAMADOS (BIP)
                  SLACKWARE LINUX - HELLOCODELINUX@GMAIL.COM
                          https://slacko.home.blog
+----------------------------------------------------------------------------+
OSCAR 7
1  7530U 74089B   19224.78128655 -.00000037  00000-0  50233-4 0  9991
2  7530 101.7481 191.8874 0011711 240.5488 237.0983 12.53639342 47426
OSCAR 11 (UoSAT 2)
1 14781U 84021B   19225.49626625  .00000037  00000-0  10592-4 0  9996
2 14781  97.6087 247.5679 0009666 129.9904 230.2161 14.83099948907030
OSCAR 19 (LUSAT)
1 20442U 90005G   19225.46092232 -.00000011  00000-0  12199-4 0  9992
2 20442  98.6506 167.3754 0011605 351.1006   8.9970 14.32930454544360
EYESAT A
1 22825U 93061C   19224.77352280 -.00000011  00000-0  13775-4 0  9990
2 22825  98.9064 214.6758 0008081 191.3357 168.7644 14.30064057349828
ITAMSAT
1 22826U 93061D   19224.90226221 -.00000003  00000-0  16583-4 0  9992
2 22826  98.9003 214.7921 0008824 179.9193 180.1991 14.30397905350040
RADIO ROSTO
1 23439U 94085A   19224.85893155 -.00000039  00000-0  10090-3 0  9995
2 23439  64.8187  26.9098 0146059 102.5225 259.2081 11.27568761 14278
JAS 2
1 24278U 96046B   19224.93519998 -.00000047  00000-0 -15111-4 0  9995
2 24278  98.5450  10.8654 0351368  96.7724 267.3523 13.53092936135278
TECHSAT 1B
1 25397U 98043D   19224.43858324 -.00000031  00000-0  56888-5 0  9990
2 25397  98.6903 163.9259 0000595 175.0373 185.0812 14.23668811 95664
ISS (ZARYA)
1 25544U 98067A   19225.45882684  .00000239  00000-0  11857-4 0  9994
2 25544  51.6444  77.1196 0005944 252.3371 175.5635 15.51051081184149
PCSAT
1 26931U 01043C   19224.45322267 -.00000047  00000-0  13889-4 0  9993
2 26931  67.0494 222.3682 0007439 274.8996  85.1256 14.30549124932808
SAUDISAT 1C
1 27607U 02058C   19225.52845575 -.00000046  00000-0  14469-4 0  9996
2 27607  64.5532 238.8821 0079168 245.7972 113.4842 14.75564235895274
CUTE-1
1 27844U 03031E   19224.95126163  .00000037  00000-0  36264-4 0  9998
2 27844  98.6841 232.3385 0008874 226.5899 133.4540 14.22189136836146
CUBESAT XI 4
1 27848U 03031J   19224.81839367  .00000028  00000-0  32511-4 0  9995
2 27848  98.6918 232.7194 0008644 239.8542 120.1779 14.21783029835971
MOZHAYETS 4
1 27939U 03042A   19225.37200831  .00000098  00000-0  26187-4 0  9997
2 27939  98.0482   0.1258 0011835 249.6966 110.2975 14.66795933848704
CUBESAT XI 5
1 28895U 05043F   19224.60826788  .00000071  00000-0  22514-4 0  9993
2 28895  97.9665   5.4797 0017004 173.6737 186.4684 14.63681383735515
CUTE-1.7+APD II
1 32785U 08021C   19224.81533421  .00000126  00000-0  19186-4 0  9999
2 32785  97.5512 221.9344 0014691  81.2582 279.0299 14.88329701611883
DELFI C3
1 32789U 08021G   19225.52594017  .00000468  00000-0  35248-4 0  9996
2 32789  97.4607 273.4964 0010561 297.7346  62.2810 15.07046097615370
SEEDS
1 32791U 08021J   19224.94228466 -.00000229  00000-0 -17891-4 0  9997
2 32791  97.5281 228.0825 0014860  56.3087 303.9513 14.90845857612342
YUBELEINY
1 32953U 08025A   19225.41991525  .00000020  00000-0  75656-4 0  9997
2 32953  82.5008 110.1135 0019916   9.6907 350.4555 12.43090825509236
PRISM (HITOMI)
1 33493U 09002B   19224.61786873  .00000370  00000-0  37922-4 0  9994
2 33493  98.1209 147.6556 0015554   7.8488 352.2972 14.96700882573361
KKS-1 (KISEKI)
1 33499U 09002H   19224.80971839  .00000049  00000-0  15343-4 0  9995
2 33499  98.3475  65.2666 0009982  37.7572 322.4335 14.75454081567353
SWISSCUBE
1 35932U 09051B   19225.45627599  .00000092  00000-0  31864-4 0  9990
2 35932  98.5931  33.0769 0007575   4.3101 355.8160 14.56299533524893
BEESAT
1 35933U 09051C   19224.70013847  .00000079  00000-0  28768-4 0  9997
2 35933  98.5954  34.0808 0006141  22.0173 338.1287 14.56386693524896
ITUPSAT 1
1 35935U 09051E   19224.51458796  .00000041  00000-0  20523-4 0  9994
2 35935  98.6064  34.1236 0008365  16.7106 343.4364 14.55544465524610
XIWANG-1 (HOPE-1)
1 36122U 09072B   19224.76310542 -.00000059  00000-0 -43302-4 0  9990
2 36122 100.0745 224.5564 0007217 217.0254 143.0363 13.16350276464120
TISAT 1
1 36799U 10035E   19224.84238837  .00000357  00000-0  42090-4 0  9998
2 36799  98.1623  18.8450 0010910 264.3083  95.6891 14.91132160492986
JUGNU
1 37839U 11058B   19225.54368640  .00000289  00000-0  11936-4 0  9993
2 37839  19.9628 356.0853 0018802 222.9078 231.5544 14.12655218405161
SRMSAT
1 37841U 11058D   19224.82807472  .00000293  00000-0  16171-4 0  9998
2 37841  19.9733  58.3377 0011923  82.1218  32.2995 14.10636262404489
M-CUBED/EXP-1 PRIME
1 37855U 11061F   19224.36280975  .00000297  00000-0  23305-4 0  9990
2 37855 101.7100 148.0214 0173070 274.7786  83.3682 15.05528044425004
HORYU 2
1 38340U 12025D   19224.36100578  .00000087  00000-0  20795-4 0  9998
2 38340  98.3255 264.5812 0010420 314.7624  45.2735 14.75736137389228
STRAND 1
1 39090U 13009E   19224.79692812  .00000022  00000-0  22945-4 0  9996
2 39090  98.4842  69.8187 0010157 121.0547 239.1636 14.35092597338291
SOMP
1 39134U 13015E   19224.55401909  .00000788  00000-0  45185-4 0  9991
2 39134  64.8619 202.6823 0034076 295.3364  64.4235 15.20241401348932
BEESAT 3
1 39135U 13015F   19224.37590983  .00000520  00000-0  35565-4 0  9998
2 39135  64.8680 222.3310 0028766 309.3323  50.5253 15.17537341348541
BEESAT 2
1 39136U 13015G   19224.49952390  .00000311  00000-0  25644-4 0  9991
2 39136  64.8673 225.9139 0021904 302.2482  57.6520 15.16956103348485
CUBEBUG 1
1 39153U 13018D   19225.51871045  .00000074  00000-0  16597-4 0  9997
2 39153  97.9803 323.3351 0017366  22.4486 337.7483 14.80582162340074
ZACUBE
1 39417U 13066B   19224.89966355  .00000127  00000-0  22426-4 0  9999
2 39417  97.5621 235.2989 0058087 211.6883 148.0829 14.81133901309219
TRITON 1
1 39427U 13066M   19224.94419354  .00000168  00000-0  34905-4 0  9998
2 39427  97.6807 198.9205 0113628 349.3752  10.5054 14.67863004306443
GOMX 1
1 39430U 13066Q   19225.57538882  .00000139  00000-0  33681-4 0  9998
2 39430  97.7506 178.4597 0152516  78.0889 283.7354 14.59269383304757
HUMSAT D
1 39433U 13066T   19225.13664444  .00000418  00000-0  45950-4 0  9999
2 39433  97.5497 270.3652 0032295 114.6988 245.7600 14.92223805311340
CUBEBUG 2
1 39440U 13066AA  19225.48119016  .00000118  00000-0  23567-4 0  9992
2 39440  97.6042 220.6306 0078642 263.6781  95.5468 14.75872260308201
FUNCUBE 1
1 39444U 13066AE  19224.80219591  .00000158  00000-0  25767-4 0  9998
2 39444  97.5600 237.2059 0057353 205.5188 154.3193 14.81956296308090
UWE-3
1 39446U 13066AG  19225.45751518  .00000111  00000-0  21498-4 0  9998
2 39446  97.5822 227.6914 0068648 237.3966 122.0607 14.78406832307506
SPROUT
1 39770U 14029E   19225.53653858  .00000511  00000-0  62619-4 0  9999
2 39770  97.8861 328.4738 0007644 263.9353  96.0996 14.87386113283132
UNISAT 6
1 40012U 14033C   19224.86568670  .00000103  00000-0  22899-4 0  9990
2 40012  97.7508  89.0813 0056867 280.2857  79.1944 14.73993830276813
DUCHIFAT 1
1 40021U 14033M   19225.32609572  .00000230  00000-0  29326-4 0  9992
2 40021  97.9229 150.1038 0011686 222.4376 137.5939 14.90657501279837
QB50P1
1 40025U 14033R   19224.40306654  .00000151  00000-0  22095-4 0  9997
2 40025  97.9038 143.9971 0011133 236.3629 123.6526 14.88963971279462
CHUBUSAT 1
1 40300U 14070C   19225.20505631  .00000367  00000-0  18945-4 0  9997
2 40300  97.3241 297.9781 0018702 219.3398 196.9520 15.22128996264460
NUDT-PHONESAT
1 40900U 15049B   19225.30379057  .00001396  00000-0  62412-4 0  9993
2 40900  97.4380 234.0939 0012910 357.3817 123.2839 15.22923577216126
ZDPS 2A
1 40901U 15049C   19225.53087208  .00000533  00000-0  29671-4 0  9995
2 40901  97.4605 230.5481 0014022  15.4959 142.5432 15.17781213215704
ZDPS 2B
1 40902U 15049D   19225.49541368  .00000738  00000-0  39971-4 0  9994
2 40902  97.4555 227.9709 0014025  12.9927 137.9838 15.17616253215677
XW-2A
1 40903U 15049E   19225.52784057  .00001194  00000-0  30005-4 0  9999
2 40903  97.3348 268.5993 0012256 308.0598 158.0387 15.41984032218856
KAITUO 1A
1 40904U 15049F   19225.53163833  .00000521  00000-0  31016-4 0  9990
2 40904  97.4681 226.5859 0015318  20.4268  78.5681 15.15395614215453
OBJECT G
1 40905U 15049G   19225.51923057  .00000452  00000-0  28173-4 0  9994
2 40905  97.4726 224.0687 0016091  15.2642  82.9997 15.14320239215328
XW-2C
1 40906U 15049H   19225.52101304  .00000542  00000-0  31875-4 0  9992
2 40906  97.4688 226.6768 0015172  11.9873  86.6038 15.15715904215451
XW-2D
1 40907U 15049J   19225.35877086  .00000286  00000-0  18384-4 0  9996
2 40907  97.4668 226.1971 0014505   9.7610  83.9808 15.15904295215441
LILACSAT 2
1 40908U 15049K   19225.45575868  .00000271  00000-0  18593-4 0  9997
2 40908  97.4803 225.0733 0016413  15.3189 115.0030 15.13826556215244
XW-2F
1 40910U 15049M   19225.40009297  .00000905  00000-0  48588-4 0  9994
2 40910  97.4644 228.3088 0015361   2.3017  92.8080 15.17361179215466
XW-2B
1 40911U 15049N   19225.52686664  .00000624  00000-0  36070-4 0  9998
2 40911  97.4692 227.0188 0014511  10.2923  88.0579 15.15836848215364
